owner,sensor,date,latitude,longitude,air_pressure(mBar),qcFlag 
TABS,ioos:station:wmo:42043:1,2013-01-01T00:00:00Z,28.9818,-94.9186,1014.54,11111222 
TABS,ioos:station:wmo:42043:1,2013-01-01T00:30:00Z,28.9818,-94.9186,1014.61,11111222 
TABS,ioos:station:wmo:42043:1,2013-01-01T01:00:00Z,28.9818,-94.9186,1014.42,11111222 
TABS,ioos:station:wmo:42043:1,2013-01-01T01:30:00Z,28.9818,-94.9186,1014.52,11111222 
TABS,ioos:station:wmo:42043:1,2013-01-01T02:00:00Z,28.9818,-94.9186,1014.66,11111222 
TABS,ioos:station:wmo:42043:1,2013-01-01T02:30:00Z,28.9818,-94.9186,1014.83,11111222 
TABS,ioos:station:wmo:42043:1,2013-01-01T03:00:00Z,28.9818,-94.9186,1014.7,11111222 
TABS,ioos:station:wmo:42043:1,2013-01-01T03:30:00Z,28.9818,-94.9186,1014.55,11111222 
TABS,ioos:station:wmo:42043:1,2013-01-01T04:00:00Z,28.9818,-94.9186,1014.11,11111222 
TABS,ioos:station:wmo:42043:1,2013-01-01T04:30:00Z,28.9818,-94.9186,1014.16,11111222 
TABS,ioos:station:wmo:42043:1,2013-01-01T05:00:00Z,28.9818,-94.9186,1014.04,11111222 
TABS,ioos:station:wmo:42043:1,2013-01-01T05:30:00Z,28.9818,-94.9186,1013.81,11111222 
TABS,ioos:station:wmo:42043:1,2013-01-01T06:00:00Z,28.9818,-94.9186,1013.83,11111222 
TABS,ioos:station:wmo:42043:1,2013-01-01T06:30:00Z,28.9818,-94.9186,1013.77,11111222 
TABS,ioos:station:wmo:42043:1,2013-01-01T07:00:00Z,28.9818,-94.9186,1013.36,11111222 
TABS,ioos:station:wmo:42043:1,2013-01-01T07:30:00Z,28.9818,-94.9186,1013.47,11111222 
TABS,ioos:station:wmo:42043:1,2013-01-01T08:00:00Z,28.9818,-94.9186,1013.05,11111222 
TABS,ioos:station:wmo:42043:1,2013-01-01T08:30:00Z,28.9818,-94.9186,1012.68,11111222 
TABS,ioos:station:wmo:42043:1,2013-01-01T09:00:00Z,28.9818,-94.9186,1012.89,11111222 
TABS,ioos:station:wmo:42043:1,2013-01-01T09:30:00Z,28.9818,-94.9186,1013.02,11111222 
TABS,ioos:station:wmo:42043:1,2013-01-01T10:00:00Z,28.9818,-94.9186,1012.47,11111222 
TABS,ioos:station:wmo:42043:1,2013-01-01T10:30:00Z,28.9818,-94.9186,1012.31,11111222 
TABS,ioos:station:wmo:42043:1,2013-01-01T11:00:00Z,28.9818,-94.9186,1012.26,11111222 
TABS,ioos:station:wmo:42043:1,2013-01-01T11:30:00Z,28.9818,-94.9186,1012.78,11111222 
TABS,ioos:station:wmo:42043:1,2013-01-01T12:00:00Z,28.9818,-94.9186,1013.21,11111222 
TABS,ioos:station:wmo:42043:1,2013-01-01T12:30:00Z,28.9818,-94.9186,1013.38,11111222 
TABS,ioos:station:wmo:42043:1,2013-01-01T13:00:00Z,28.9818,-94.9186,1013.6,11111222 
TABS,ioos:station:wmo:42043:1,2013-01-01T13:30:00Z,28.9818,-94.9186,1014.12,11111222 
TABS,ioos:station:wmo:42043:1,2013-01-01T14:00:00Z,28.9818,-94.9186,1014.31,11111222 
TABS,ioos:station:wmo:42043:1,2013-01-01T14:30:00Z,28.9818,-94.9186,1015.3,11111222 
TABS,ioos:station:wmo:42043:1,2013-01-01T15:00:00Z,28.9818,-94.9186,1014.97,11111222 
TABS,ioos:station:wmo:42043:1,2013-01-01T15:30:00Z,28.9818,-94.9186,1015.42,11111222 
TABS,ioos:station:wmo:42043:1,2013-01-01T16:00:00Z,28.9818,-94.9186,1017.36,11111222 
TABS,ioos:station:wmo:42043:1,2013-01-01T16:30:00Z,28.9818,-94.9186,1017.05,11111222 
TABS,ioos:station:wmo:42043:1,2013-01-01T17:00:00Z,28.9818,-94.9186,1017.49,11111222 
TABS,ioos:station:wmo:42043:1,2013-01-01T17:30:00Z,28.9818,-94.9186,1016.81,11111222 
TABS,ioos:station:wmo:42043:1,2013-01-01T18:00:00Z,28.9818,-94.9186,1016.85,11111222 
TABS,ioos:station:wmo:42043:1,2013-01-01T18:30:00Z,28.9818,-94.9186,1016.87,11111222 
TABS,ioos:station:wmo:42043:1,2013-01-01T19:00:00Z,28.9818,-94.9186,1016.62,11111222 
TABS,ioos:station:wmo:42043:1,2013-01-01T19:30:00Z,28.9818,-94.9186,1016.18,11111222 
TABS,ioos:station:wmo:42043:1,2013-01-01T20:00:00Z,28.9818,-94.9186,1016.1,11111222 
TABS,ioos:station:wmo:42043:1,2013-01-01T20:30:00Z,28.9818,-94.9186,1016.09,11111222 
TABS,ioos:station:wmo:42043:1,2013-01-01T21:00:00Z,28.9818,-94.9186,1016.67,11111222 
TABS,ioos:station:wmo:42043:1,2013-01-01T21:30:00Z,28.9818,-94.9186,1016.89,11111222 
TABS,ioos:station:wmo:42043:1,2013-01-01T22:00:00Z,28.9818,-94.9186,1017.3,11111222 
TABS,ioos:station:wmo:42043:1,2013-01-01T22:30:00Z,28.9818,-94.9186,1017.87,11111222 
TABS,ioos:station:wmo:42043:1,2013-01-01T23:00:00Z,28.9818,-94.9186,1018.42,11111222 
TABS,ioos:station:wmo:42043:1,2013-01-01T23:30:00Z,28.9818,-94.9186,1018.27,11111222 
TABS,ioos:station:wmo:42043:1,2013-01-02T00:00:00Z,28.9818,-94.9186,1019.05,11111222 
TABS,ioos:station:wmo:42043:1,2013-01-02T00:30:00Z,28.9818,-94.9186,1019.13,11111222 
TABS,ioos:station:wmo:42043:1,2013-01-02T01:00:00Z,28.9818,-94.9186,1019.81,11111222 
TABS,ioos:station:wmo:42043:1,2013-01-02T01:30:00Z,28.9818,-94.9186,1019.74,11111222 
TABS,ioos:station:wmo:42043:1,2013-01-02T02:00:00Z,28.9818,-94.9186,1019.9,11111222 
TABS,ioos:station:wmo:42043:1,2013-01-02T02:30:00Z,28.9818,-94.9186,1019.95,11111222 
TABS,ioos:station:wmo:42043:1,2013-01-02T03:00:00Z,28.9818,-94.9186,1020.8,11111222 
TABS,ioos:station:wmo:42043:1,2013-01-02T03:30:00Z,28.9818,-94.9186,1020.82,11111222 
TABS,ioos:station:wmo:42043:1,2013-01-02T04:00:00Z,28.9818,-94.9186,1020.67,11111222 
TABS,ioos:station:wmo:42043:1,2013-01-02T04:30:00Z,28.9818,-94.9186,1021.27,11111222 
TABS,ioos:station:wmo:42043:1,2013-01-02T05:00:00Z,28.9818,-94.9186,1021.42,11111222 
TABS,ioos:station:wmo:42043:1,2013-01-02T05:30:00Z,28.9818,-94.9186,1020.88,11111222 
TABS,ioos:station:wmo:42043:1,2013-01-02T06:00:00Z,28.9818,-94.9186,1020.01,11111222 
TABS,ioos:station:wmo:42043:1,2013-01-02T06:30:00Z,28.9818,-94.9186,1020.85,11111222 
TABS,ioos:station:wmo:42043:1,2013-01-02T07:00:00Z,28.9818,-94.9186,1020.64,11111222 
TABS,ioos:station:wmo:42043:1,2013-01-02T07:30:00Z,28.9818,-94.9186,1019.98,11111222 
TABS,ioos:station:wmo:42043:1,2013-01-02T08:00:00Z,28.9818,-94.9186,1020.59,11111222 
TABS,ioos:station:wmo:42043:1,2013-01-02T08:30:00Z,28.9818,-94.9186,1020.47,11111222 
TABS,ioos:station:wmo:42043:1,2013-01-02T09:00:00Z,28.9818,-94.9186,1020.61,11111222 
TABS,ioos:station:wmo:42043:1,2013-01-02T09:30:00Z,28.9818,-94.9186,1021.2,11111222 
TABS,ioos:station:wmo:42043:1,2013-01-02T10:00:00Z,28.9818,-94.9186,1021.52,11111222 
TABS,ioos:station:wmo:42043:1,2013-01-02T10:30:00Z,28.9818,-94.9186,1020.67,11111222 
TABS,ioos:station:wmo:42043:1,2013-01-02T11:00:00Z,28.9818,-94.9186,1021.13,11111222 
TABS,ioos:station:wmo:42043:1,2013-01-02T11:30:00Z,28.9818,-94.9186,1022.32,11111222 
TABS,ioos:station:wmo:42043:1,2013-01-02T12:00:00Z,28.9818,-94.9186,1021.94,11111222 
TABS,ioos:station:wmo:42043:1,2013-01-02T12:30:00Z,28.9818,-94.9186,1021.93,11111222 
TABS,ioos:station:wmo:42043:1,2013-01-02T13:00:00Z,28.9818,-94.9186,1022.77,11111222 
TABS,ioos:station:wmo:42043:1,2013-01-02T13:30:00Z,28.9818,-94.9186,1023.17,11111222 
TABS,ioos:station:wmo:42043:1,2013-01-02T14:00:00Z,28.9818,-94.9186,1023.27,11111222 
TABS,ioos:station:wmo:42043:1,2013-01-02T14:30:00Z,28.9818,-94.9186,1023.97,11111222 
TABS,ioos:station:wmo:42043:1,2013-01-02T15:00:00Z,28.9818,-94.9186,1024.0,11111222 
TABS,ioos:station:wmo:42043:1,2013-01-02T15:30:00Z,28.9818,-94.9186,1024.89,11111222 
TABS,ioos:station:wmo:42043:1,2013-01-02T16:00:00Z,28.9818,-94.9186,1024.04,11111222 
TABS,ioos:station:wmo:42043:1,2013-01-02T16:30:00Z,28.9818,-94.9186,1024.27,11111222 
TABS,ioos:station:wmo:42043:1,2013-01-02T17:00:00Z,28.9818,-94.9186,1024.75,11111222 
TABS,ioos:station:wmo:42043:1,2013-01-02T17:30:00Z,28.9818,-94.9186,1024.09,11111222 
TABS,ioos:station:wmo:42043:1,2013-01-02T18:00:00Z,28.9818,-94.9186,1024.17,11111222 
TABS,ioos:station:wmo:42043:1,2013-01-02T18:30:00Z,28.9818,-94.9186,1023.57,11111222 
TABS,ioos:station:wmo:42043:1,2013-01-02T19:00:00Z,28.9818,-94.9186,1022.68,11111222 
TABS,ioos:station:wmo:42043:1,2013-01-02T19:30:00Z,28.9818,-94.9186,1022.77,11111222 
TABS,ioos:station:wmo:42043:1,2013-01-02T20:00:00Z,28.9818,-94.9186,1023.03,11111222 
TABS,ioos:station:wmo:42043:1,2013-01-02T20:30:00Z,28.9818,-94.9186,1022.97,11111222 
TABS,ioos:station:wmo:42043:1,2013-01-02T21:00:00Z,28.9818,-94.9186,1022.75,11111222 
TABS,ioos:station:wmo:42043:1,2013-01-02T21:30:00Z,28.9818,-94.9186,1022.95,11111222 
TABS,ioos:station:wmo:42043:1,2013-01-02T22:00:00Z,28.9818,-94.9186,1023.27,11111222 
TABS,ioos:station:wmo:42043:1,2013-01-02T22:30:00Z,28.9818,-94.9186,1023.02,11111222 
TABS,ioos:station:wmo:42043:1,2013-01-02T23:00:00Z,28.9818,-94.9186,1023.47,11111222 
TABS,ioos:station:wmo:42043:1,2013-01-02T23:30:00Z,28.9818,-94.9186,1023.71,11111222 
TABS,ioos:station:wmo:42043:1,2013-01-03T00:00:00Z,28.9818,-94.9186,1023.99,11111222 
TABS,ioos:station:wmo:42043:1,2013-01-03T00:30:00Z,28.9818,-94.9186,1023.9,11111222 
TABS,ioos:station:wmo:42043:1,2013-01-03T01:00:00Z,28.9818,-94.9186,1023.96,11111222 
TABS,ioos:station:wmo:42043:1,2013-01-03T01:30:00Z,28.9818,-94.9186,1024.29,11111222 
TABS,ioos:station:wmo:42043:1,2013-01-03T02:00:00Z,28.9818,-94.9186,1024.88,11111222 
TABS,ioos:station:wmo:42043:1,2013-01-03T02:30:00Z,28.9818,-94.9186,1024.65,11111222 
TABS,ioos:station:wmo:42043:1,2013-01-03T03:00:00Z,28.9818,-94.9186,1024.59,11111222 
TABS,ioos:station:wmo:42043:1,2013-01-03T03:30:00Z,28.9818,-94.9186,1024.63,11111222 
TABS,ioos:station:wmo:42043:1,2013-01-03T04:00:00Z,28.9818,-94.9186,1024.8,11111222 
TABS,ioos:station:wmo:42043:1,2013-01-03T04:30:00Z,28.9818,-94.9186,1024.27,11111222 
TABS,ioos:station:wmo:42043:1,2013-01-03T05:00:00Z,28.9818,-94.9186,1024.77,11111222 
TABS,ioos:station:wmo:42043:1,2013-01-03T05:30:00Z,28.9818,-94.9186,1024.42,11111222 
TABS,ioos:station:wmo:42043:1,2013-01-03T06:00:00Z,28.9818,-94.9186,1024.17,11111222 
TABS,ioos:station:wmo:42043:1,2013-01-03T06:30:00Z,28.9818,-94.9186,1024.19,11111222 
TABS,ioos:station:wmo:42043:1,2013-01-03T07:00:00Z,28.9818,-94.9186,1024.02,11111222 
TABS,ioos:station:wmo:42043:1,2013-01-03T07:30:00Z,28.9818,-94.9186,1024.24,11111222 
TABS,ioos:station:wmo:42043:1,2013-01-03T08:00:00Z,28.9818,-94.9186,1024.73,11111222 
TABS,ioos:station:wmo:42043:1,2013-01-03T08:30:00Z,28.9818,-94.9186,1024.97,11111222 
TABS,ioos:station:wmo:42043:1,2013-01-03T09:00:00Z,28.9818,-94.9186,1024.83,11111222 
TABS,ioos:station:wmo:42043:1,2013-01-03T09:30:00Z,28.9818,-94.9186,1025.21,11111222 
TABS,ioos:station:wmo:42043:1,2013-01-03T10:00:00Z,28.9818,-94.9186,1024.97,11111222 
TABS,ioos:station:wmo:42043:1,2013-01-03T10:30:00Z,28.9818,-94.9186,1025.07,11111222 
TABS,ioos:station:wmo:42043:1,2013-01-03T11:00:00Z,28.9818,-94.9186,1024.97,11111222 
TABS,ioos:station:wmo:42043:1,2013-01-03T11:30:00Z,28.9818,-94.9186,1025.63,11111222 
TABS,ioos:station:wmo:42043:1,2013-01-03T12:00:00Z,28.9818,-94.9186,1025.97,11111222 
TABS,ioos:station:wmo:42043:1,2013-01-03T12:30:00Z,28.9818,-94.9186,1026.0,11111222 
TABS,ioos:station:wmo:42043:1,2013-01-03T13:00:00Z,28.9818,-94.9186,1026.3,11111222 
TABS,ioos:station:wmo:42043:1,2013-01-03T13:30:00Z,28.9818,-94.9186,1026.83,11111222 
TABS,ioos:station:wmo:42043:1,2013-01-03T14:00:00Z,28.9818,-94.9186,1026.91,11111222 
TABS,ioos:station:wmo:42043:1,2013-01-03T14:30:00Z,28.9818,-94.9186,1027.27,11111222 
TABS,ioos:station:wmo:42043:1,2013-01-03T15:00:00Z,28.9818,-94.9186,1027.01,11111222 
TABS,ioos:station:wmo:42043:1,2013-01-03T15:30:00Z,28.9818,-94.9186,1028.41,11111222 
TABS,ioos:station:wmo:42043:1,2013-01-03T16:00:00Z,28.9818,-94.9186,1028.16,11111222 
TABS,ioos:station:wmo:42043:1,2013-01-03T16:30:00Z,28.9818,-94.9186,1028.12,11111222 
TABS,ioos:station:wmo:42043:1,2013-01-03T17:00:00Z,28.9818,-94.9186,1028.27,11111222 
TABS,ioos:station:wmo:42043:1,2013-01-03T17:30:00Z,28.9818,-94.9186,1027.71,11111222 
TABS,ioos:station:wmo:42043:1,2013-01-03T18:00:00Z,28.9818,-94.9186,1026.86,11111222 
TABS,ioos:station:wmo:42043:1,2013-01-03T18:30:00Z,28.9818,-94.9186,1025.95,11111222 
TABS,ioos:station:wmo:42043:1,2013-01-03T19:00:00Z,28.9818,-94.9186,1026.04,11111222 
TABS,ioos:station:wmo:42043:1,2013-01-03T19:30:00Z,28.9818,-94.9186,1026.5,11111222 
TABS,ioos:station:wmo:42043:1,2013-01-03T20:00:00Z,28.9818,-94.9186,1026.46,11111222 
TABS,ioos:station:wmo:42043:1,2013-01-03T20:30:00Z,28.9818,-94.9186,1026.6,11111222 
TABS,ioos:station:wmo:42043:1,2013-01-03T21:00:00Z,28.9818,-94.9186,1026.31,11111222 
TABS,ioos:station:wmo:42043:1,2013-01-03T21:30:00Z,28.9818,-94.9186,1026.3,11111222 
TABS,ioos:station:wmo:42043:1,2013-01-03T22:00:00Z,28.9818,-94.9186,1026.69,11111222 
TABS,ioos:station:wmo:42043:1,2013-01-03T22:30:00Z,28.9818,-94.9186,1026.59,11111222 
TABS,ioos:station:wmo:42043:1,2013-01-03T23:00:00Z,28.9818,-94.9186,1027.32,11111222 
TABS,ioos:station:wmo:42043:1,2013-01-03T23:30:00Z,28.9818,-94.9186,1027.58,11111222 
TABS,ioos:station:wmo:42043:1,2013-01-04T00:00:00Z,28.9818,-94.9186,1027.72,11111222 
TABS,ioos:station:wmo:42043:1,2013-01-04T00:30:00Z,28.9818,-94.9186,1028.16,11111222 
TABS,ioos:station:wmo:42043:1,2013-01-04T01:00:00Z,28.9818,-94.9186,1028.33,11111222 
TABS,ioos:station:wmo:42043:1,2013-01-04T01:30:00Z,28.9818,-94.9186,1028.29,11111222 
TABS,ioos:station:wmo:42043:1,2013-01-04T02:00:00Z,28.9818,-94.9186,1028.06,11111222 
TABS,ioos:station:wmo:42043:1,2013-01-04T02:30:00Z,28.9818,-94.9186,1027.66,11111222 
TABS,ioos:station:wmo:42043:1,2013-01-04T03:00:00Z,28.9818,-94.9186,1028.07,11111222 
TABS,ioos:station:wmo:42043:1,2013-01-04T03:30:00Z,28.9818,-94.9186,1028.31,11111222 
TABS,ioos:station:wmo:42043:1,2013-01-04T04:00:00Z,28.9818,-94.9186,1028.32,11111222 
TABS,ioos:station:wmo:42043:1,2013-01-04T04:30:00Z,28.9818,-94.9186,1028.19,11111222 
TABS,ioos:station:wmo:42043:1,2013-01-04T05:00:00Z,28.9818,-94.9186,1027.96,11111222 
TABS,ioos:station:wmo:42043:1,2013-01-04T05:30:00Z,28.9818,-94.9186,1027.78,11111222 
TABS,ioos:station:wmo:42043:1,2013-01-04T06:00:00Z,28.9818,-94.9186,1027.03,11111222 
TABS,ioos:station:wmo:42043:1,2013-01-04T06:30:00Z,28.9818,-94.9186,1026.39,11111222 
TABS,ioos:station:wmo:42043:1,2013-01-04T07:00:00Z,28.9818,-94.9186,1026.77,11111222 
TABS,ioos:station:wmo:42043:1,2013-01-04T07:30:00Z,28.9818,-94.9186,1026.27,11111222 
TABS,ioos:station:wmo:42043:1,2013-01-04T08:00:00Z,28.9818,-94.9186,1026.94,11111222 
TABS,ioos:station:wmo:42043:1,2013-01-04T08:30:00Z,28.9818,-94.9186,1026.74,11111222 
TABS,ioos:station:wmo:42043:1,2013-01-04T09:00:00Z,28.9818,-94.9186,1027.03,11111222 
TABS,ioos:station:wmo:42043:1,2013-01-04T09:30:00Z,28.9818,-94.9186,1027.19,11111222 
TABS,ioos:station:wmo:42043:1,2013-01-04T10:00:00Z,28.9818,-94.9186,1027.58,11111222 
TABS,ioos:station:wmo:42043:1,2013-01-04T10:30:00Z,28.9818,-94.9186,1027.46,11111222 
TABS,ioos:station:wmo:42043:1,2013-01-04T11:00:00Z,28.9818,-94.9186,1027.95,11111222 
TABS,ioos:station:wmo:42043:1,2013-01-04T11:30:00Z,28.9818,-94.9186,1028.68,11111222 
TABS,ioos:station:wmo:42043:1,2013-01-04T12:00:00Z,28.9818,-94.9186,1029.21,11111222 
TABS,ioos:station:wmo:42043:1,2013-01-04T12:30:00Z,28.9818,-94.9186,1029.87,11111222 
TABS,ioos:station:wmo:42043:1,2013-01-04T13:00:00Z,28.9818,-94.9186,1029.79,11111222 
TABS,ioos:station:wmo:42043:1,2013-01-04T13:30:00Z,28.9818,-94.9186,1029.68,11111222 
TABS,ioos:station:wmo:42043:1,2013-01-04T14:00:00Z,28.9818,-94.9186,1030.68,11111222 
TABS,ioos:station:wmo:42043:1,2013-01-04T14:30:00Z,28.9818,-94.9186,1030.97,11111222 
TABS,ioos:station:wmo:42043:1,2013-01-04T15:00:00Z,28.9818,-94.9186,1031.3,11111222 
TABS,ioos:station:wmo:42043:1,2013-01-04T15:30:00Z,28.9818,-94.9186,1031.45,11111222 
TABS,ioos:station:wmo:42043:1,2013-01-04T16:00:00Z,28.9818,-94.9186,1031.24,11111222 
TABS,ioos:station:wmo:42043:1,2013-01-04T16:30:00Z,28.9818,-94.9186,1031.22,11111222 
TABS,ioos:station:wmo:42043:1,2013-01-04T17:00:00Z,28.9818,-94.9186,1031.15,11111222 
TABS,ioos:station:wmo:42043:1,2013-01-04T17:30:00Z,28.9818,-94.9186,1030.22,11111222 
TABS,ioos:station:wmo:42043:1,2013-01-04T18:00:00Z,28.9818,-94.9186,1029.57,11111222 
TABS,ioos:station:wmo:42043:1,2013-01-04T18:30:00Z,28.9818,-94.9186,1028.83,11111222 
TABS,ioos:station:wmo:42043:1,2013-01-04T19:00:00Z,28.9818,-94.9186,1028.21,11111222 
TABS,ioos:station:wmo:42043:1,2013-01-04T19:30:00Z,28.9818,-94.9186,1027.93,11111222 
TABS,ioos:station:wmo:42043:1,2013-01-04T20:00:00Z,28.9818,-94.9186,1027.92,11111222 
TABS,ioos:station:wmo:42043:1,2013-01-04T20:30:00Z,28.9818,-94.9186,1027.42,11111222 
TABS,ioos:station:wmo:42043:1,2013-01-04T21:00:00Z,28.9818,-94.9186,1026.82,11111222 
TABS,ioos:station:wmo:42043:1,2013-01-04T21:30:00Z,28.9818,-94.9186,1027.56,11111222 
TABS,ioos:station:wmo:42043:1,2013-01-04T22:00:00Z,28.9818,-94.9186,1027.65,11111222 
TABS,ioos:station:wmo:42043:1,2013-01-04T22:30:00Z,28.9818,-94.9186,1027.55,11111222 
TABS,ioos:station:wmo:42043:1,2013-01-04T23:00:00Z,28.9818,-94.9186,1027.53,11111222 
TABS,ioos:station:wmo:42043:1,2013-01-04T23:30:00Z,28.9818,-94.9186,1027.39,11111222 
TABS,ioos:station:wmo:42043:1,2013-01-05T00:00:00Z,28.9818,-94.9186,1027.71,11111222 
TABS,ioos:station:wmo:42043:1,2013-01-05T00:30:00Z,28.9818,-94.9186,1027.83,11111222 
TABS,ioos:station:wmo:42043:1,2013-01-05T01:00:00Z,28.9818,-94.9186,1027.62,11111222 
TABS,ioos:station:wmo:42043:1,2013-01-05T01:30:00Z,28.9818,-94.9186,1027.95,11111222 
TABS,ioos:station:wmo:42043:1,2013-01-05T02:00:00Z,28.9818,-94.9186,1027.17,11111222 
TABS,ioos:station:wmo:42043:1,2013-01-05T02:30:00Z,28.9818,-94.9186,1027.56,11111222 
TABS,ioos:station:wmo:42043:1,2013-01-05T03:00:00Z,28.9818,-94.9186,1027.66,11111222 
TABS,ioos:station:wmo:42043:1,2013-01-05T03:30:00Z,28.9818,-94.9186,1027.06,11111222 
TABS,ioos:station:wmo:42043:1,2013-01-05T04:00:00Z,28.9818,-94.9186,1026.59,11111222 
TABS,ioos:station:wmo:42043:1,2013-01-05T04:30:00Z,28.9818,-94.9186,1027.3,11111222 
TABS,ioos:station:wmo:42043:1,2013-01-05T05:00:00Z,28.9818,-94.9186,1026.93,11111222 
TABS,ioos:station:wmo:42043:1,2013-01-05T05:30:00Z,28.9818,-94.9186,1027.27,11111222 
TABS,ioos:station:wmo:42043:1,2013-01-05T06:00:00Z,28.9818,-94.9186,1027.16,11111222 
TABS,ioos:station:wmo:42043:1,2013-01-05T06:30:00Z,28.9818,-94.9186,1027.01,11111222 
TABS,ioos:station:wmo:42043:1,2013-01-05T07:00:00Z,28.9818,-94.9186,1027.41,11111222 
TABS,ioos:station:wmo:42043:1,2013-01-05T07:30:00Z,28.9818,-94.9186,1026.21,11111222 
TABS,ioos:station:wmo:42043:1,2013-01-05T08:00:00Z,28.9818,-94.9186,1026.45,11111222 
TABS,ioos:station:wmo:42043:1,2013-01-05T08:30:00Z,28.9818,-94.9186,1026.27,11111222 
TABS,ioos:station:wmo:42043:1,2013-01-05T09:00:00Z,28.9818,-94.9186,1025.95,11111222 
TABS,ioos:station:wmo:42043:1,2013-01-05T09:30:00Z,28.9818,-94.9186,1025.73,11111222 
TABS,ioos:station:wmo:42043:1,2013-01-05T10:00:00Z,28.9818,-94.9186,1025.59,11111222 
TABS,ioos:station:wmo:42043:1,2013-01-05T10:30:00Z,28.9818,-94.9186,1025.68,11111222 
TABS,ioos:station:wmo:42043:1,2013-01-05T11:00:00Z,28.9818,-94.9186,1025.6,11111222 
TABS,ioos:station:wmo:42043:1,2013-01-05T11:30:00Z,28.9818,-94.9186,1025.45,11111222 
TABS,ioos:station:wmo:42043:1,2013-01-05T12:00:00Z,28.9818,-94.9186,1025.66,11111222 
TABS,ioos:station:wmo:42043:1,2013-01-05T12:30:00Z,28.9818,-94.9186,1025.84,11111222 
TABS,ioos:station:wmo:42043:1,2013-01-05T13:00:00Z,28.9818,-94.9186,1025.84,11111222 
TABS,ioos:station:wmo:42043:1,2013-01-05T13:30:00Z,28.9818,-94.9186,1026.28,11111222 
TABS,ioos:station:wmo:42043:1,2013-01-05T14:00:00Z,28.9818,-94.9186,1026.66,11111222 
TABS,ioos:station:wmo:42043:1,2013-01-05T14:30:00Z,28.9818,-94.9186,1026.51,11111222 
TABS,ioos:station:wmo:42043:1,2013-01-05T15:00:00Z,28.9818,-94.9186,1027.16,11111222 
TABS,ioos:station:wmo:42043:1,2013-01-05T15:30:00Z,28.9818,-94.9186,1026.99,11111222 
TABS,ioos:station:wmo:42043:1,2013-01-05T16:00:00Z,28.9818,-94.9186,1026.97,11111222 
TABS,ioos:station:wmo:42043:1,2013-01-05T16:30:00Z,28.9818,-94.9186,1026.03,11111222 
TABS,ioos:station:wmo:42043:1,2013-01-05T17:00:00Z,28.9818,-94.9186,1025.5,11111222 
TABS,ioos:station:wmo:42043:1,2013-01-05T17:30:00Z,28.9818,-94.9186,1025.47,11111222 
TABS,ioos:station:wmo:42043:1,2013-01-05T18:00:00Z,28.9818,-94.9186,1024.75,11111222 
TABS,ioos:station:wmo:42043:1,2013-01-05T18:30:00Z,28.9818,-94.9186,1024.69,11111222 
TABS,ioos:station:wmo:42043:1,2013-01-05T19:00:00Z,28.9818,-94.9186,1024.22,11111222 
TABS,ioos:station:wmo:42043:1,2013-01-05T19:30:00Z,28.9818,-94.9186,1024.61,11111222 
TABS,ioos:station:wmo:42043:1,2013-01-05T20:00:00Z,28.9818,-94.9186,1024.25,11111222 
TABS,ioos:station:wmo:42043:1,2013-01-05T20:30:00Z,28.9818,-94.9186,1024.04,11111222 
TABS,ioos:station:wmo:42043:1,2013-01-05T21:00:00Z,28.9818,-94.9186,1024.27,11111222 
TABS,ioos:station:wmo:42043:1,2013-01-05T21:30:00Z,28.9818,-94.9186,1024.44,11111222 
TABS,ioos:station:wmo:42043:1,2013-01-05T22:00:00Z,28.9818,-94.9186,1024.28,11111222 
TABS,ioos:station:wmo:42043:1,2013-01-05T22:30:00Z,28.9818,-94.9186,1023.89,11111222 
TABS,ioos:station:wmo:42043:1,2013-01-05T23:00:00Z,28.9818,-94.9186,1024.09,11111222 
TABS,ioos:station:wmo:42043:1,2013-01-05T23:30:00Z,28.9818,-94.9186,1023.97,11111222 
TABS,ioos:station:wmo:42043:1,2013-01-06T00:00:00Z,28.9818,-94.9186,1024.01,11111222 
TABS,ioos:station:wmo:42043:1,2013-01-06T00:30:00Z,28.9818,-94.9186,1023.94,11111222 
TABS,ioos:station:wmo:42043:1,2013-01-06T01:00:00Z,28.9818,-94.9186,1023.5,11111222 
TABS,ioos:station:wmo:42043:1,2013-01-06T01:30:00Z,28.9818,-94.9186,1023.8,11111222 
TABS,ioos:station:wmo:42043:1,2013-01-06T02:00:00Z,28.9818,-94.9186,1023.93,11111222 
TABS,ioos:station:wmo:42043:1,2013-01-06T02:30:00Z,28.9818,-94.9186,1024.27,11111222 
TABS,ioos:station:wmo:42043:1,2013-01-06T03:00:00Z,28.9818,-94.9186,1024.05,11111222 
TABS,ioos:station:wmo:42043:1,2013-01-06T03:30:00Z,28.9818,-94.9186,1024.32,11111222 
TABS,ioos:station:wmo:42043:1,2013-01-06T04:00:00Z,28.9818,-94.9186,1024.3,11111222 
TABS,ioos:station:wmo:42043:1,2013-01-06T04:30:00Z,28.9818,-94.9186,1024.27,11111222 
TABS,ioos:station:wmo:42043:1,2013-01-06T05:00:00Z,28.9818,-94.9186,1024.2,11111222 
TABS,ioos:station:wmo:42043:1,2013-01-06T05:30:00Z,28.9818,-94.9186,1024.3,11111222 
TABS,ioos:station:wmo:42043:1,2013-01-06T06:00:00Z,28.9818,-94.9186,1023.98,11111222 
TABS,ioos:station:wmo:42043:1,2013-01-06T06:30:00Z,28.9818,-94.9186,1023.8,11111222 
TABS,ioos:station:wmo:42043:1,2013-01-06T07:00:00Z,28.9818,-94.9186,1023.48,11111222 
TABS,ioos:station:wmo:42043:1,2013-01-06T07:30:00Z,28.9818,-94.9186,1023.26,11111222 
TABS,ioos:station:wmo:42043:1,2013-01-06T08:00:00Z,28.9818,-94.9186,1023.55,11111222 
TABS,ioos:station:wmo:42043:1,2013-01-06T08:30:00Z,28.9818,-94.9186,1023.38,11111222 
TABS,ioos:station:wmo:42043:1,2013-01-06T09:00:00Z,28.9818,-94.9186,1023.61,11111222 
TABS,ioos:station:wmo:42043:1,2013-01-06T09:30:00Z,28.9818,-94.9186,1023.55,11111222 
TABS,ioos:station:wmo:42043:1,2013-01-06T10:00:00Z,28.9818,-94.9186,1023.62,11111222 
TABS,ioos:station:wmo:42043:1,2013-01-06T10:30:00Z,28.9818,-94.9186,1023.5,11111222 
TABS,ioos:station:wmo:42043:1,2013-01-06T11:00:00Z,28.9818,-94.9186,1023.51,11111222 
TABS,ioos:station:wmo:42043:1,2013-01-06T11:30:00Z,28.9818,-94.9186,1023.75,11111222 
TABS,ioos:station:wmo:42043:1,2013-01-06T12:00:00Z,28.9818,-94.9186,1023.64,11111222 
TABS,ioos:station:wmo:42043:1,2013-01-06T12:30:00Z,28.9818,-94.9186,1023.64,11111222 
TABS,ioos:station:wmo:42043:1,2013-01-06T13:00:00Z,28.9818,-94.9186,1024.39,11111222 
TABS,ioos:station:wmo:42043:1,2013-01-06T13:30:00Z,28.9818,-94.9186,1024.67,11111222 
TABS,ioos:station:wmo:42043:1,2013-01-06T14:00:00Z,28.9818,-94.9186,1025.42,11111222 
TABS,ioos:station:wmo:42043:1,2013-01-06T14:30:00Z,28.9818,-94.9186,1025.68,11111222 
TABS,ioos:station:wmo:42043:1,2013-01-06T15:00:00Z,28.9818,-94.9186,1026.17,11111222 
TABS,ioos:station:wmo:42043:1,2013-01-06T15:30:00Z,28.9818,-94.9186,1026.46,11111222 
TABS,ioos:station:wmo:42043:1,2013-01-06T16:00:00Z,28.9818,-94.9186,1026.69,11111222 
TABS,ioos:station:wmo:42043:1,2013-01-06T16:30:00Z,28.9818,-94.9186,1026.7,11111222 
TABS,ioos:station:wmo:42043:1,2013-01-06T17:00:00Z,28.9818,-94.9186,1026.22,11111222 
TABS,ioos:station:wmo:42043:1,2013-01-06T17:30:00Z,28.9818,-94.9186,1026.04,11111222 
TABS,ioos:station:wmo:42043:1,2013-01-06T18:00:00Z,28.9818,-94.9186,1025.31,11111222 
TABS,ioos:station:wmo:42043:1,2013-01-06T18:30:00Z,28.9818,-94.9186,1024.85,11111222 